Time,TemperatureF,DewpointF,PressureIn,WindDirection,WindDirectionDegrees,WindSpeedMPH,WindSpeedGustMPH,Humidity,HourlyPrecipIn,Conditions,Clouds,dailyrainin,SoftwareType,DateUTC
2013-03-23 00:00:00,29.1,16.5,29.62,North,0,0.0,0.0,59,0.00,,,0.00,WUHU216HW,2013-03-23 04:00:00,
2013-03-23 00:01:00,29.1,16.5,29.61,North,0,0.0,0.0,59,0.00,,,0.00,WUHU216HW,2013-03-23 04:01:00,
2013-03-23 00:07:00,28.9,16.4,29.62,North,0,0.0,0.0,59,0.00,,,0.00,WUHU216HW,2013-03-23 04:07:00,
2013-03-23 00:12:00,28.7,16.2,29.61,North,0,0.0,0.0,59,0.00,,,0.00,WUHU216HW,2013-03-23 04:12:00,
2013-03-23 00:17:00,28.5,16.5,29.61,North,0,0.0,0.0,60,0.00,,,0.00,WUHU216HW,2013-03-23 04:17:00,
2013-03-23 00:22:00,28.2,16.1,29.62,North,0,0.0,0.0,60,0.00,,,0.00,WUHU216HW,2013-03-23 04:22:00,
2013-03-23 00:27:00,28.2,16.1,29.62,North,0,0.0,0.0,60,0.00,,,0.00,WUHU216HW,2013-03-23 04:27:00,
2013-03-23 00:32:00,28.0,16.3,29.62,North,0,0.0,0.0,61,0.00,,,0.00,WUHU216HW,2013-03-23 04:32:00,
2013-03-23 00:37:00,28.0,16.7,29.61,North,0,0.0,0.0,62,0.00,,,0.00,WUHU216HW,2013-03-23 04:37:00,
2013-03-23 00:42:00,27.6,16.3,29.61,North,0,0.0,0.0,62,0.00,,,0.00,WUHU216HW,2013-03-23 04:42:00,
2013-03-23 00:47:00,27.6,16.3,29.61,North,0,0.0,0.0,62,0.00,,,0.00,WUHU216HW,2013-03-23 04:47:00,
2013-03-23 00:52:00,27.5,16.1,29.61,North,0,0.0,0.0,62,0.00,,,0.00,WUHU216HW,2013-03-23 04:52:00,
2013-03-23 00:57:00,27.3,16.3,29.61,North,0,0.0,0.0,63,0.00,,,0.00,WUHU216HW,2013-03-23 04:57:00,
2013-03-23 01:02:00,27.3,16.7,29.61,North,0,0.0,0.0,64,0.00,,,0.00,WUHU216HW,2013-03-23 05:02:00,
2013-03-23 01:07:00,27.3,16.7,29.61,North,0,0.0,0.0,64,0.00,,,0.00,WUHU216HW,2013-03-23 05:07:00,
2013-03-23 01:12:00,27.1,16.5,29.61,North,0,0.0,0.0,64,0.00,,,0.00,WUHU216HW,2013-03-23 05:12:00,
2013-03-23 01:18:00,27.1,16.5,29.61,North,0,0.0,0.0,64,0.00,,,0.00,WUHU216HW,2013-03-23 05:18:00,
2013-03-23 01:23:00,26.9,16.3,29.61,North,0,0.0,0.0,64,0.00,,,0.00,WUHU216HW,2013-03-23 05:23:00,
2013-03-23 01:28:00,26.7,16.1,29.61,North,0,0.0,0.0,64,0.00,,,0.00,WUHU216HW,2013-03-23 05:28:00,
2013-03-23 01:33:00,26.7,16.5,29.61,North,0,0.0,0.0,65,0.00,,,0.00,WUHU216HW,2013-03-23 05:33:00,
2013-03-23 01:38:00,26.6,16.3,29.61,North,0,0.0,0.0,65,0.00,,,0.00,WUHU216HW,2013-03-23 05:38:00,
2013-03-23 01:43:00,26.4,16.5,29.61,North,0,0.0,0.0,66,0.00,,,0.00,WUHU216HW,2013-03-23 05:43:00,
2013-03-23 01:48:00,26.4,16.5,29.60,North,0,0.0,0.0,66,0.00,,,0.00,WUHU216HW,2013-03-23 05:48:00,
2013-03-23 01:53:00,26.6,16.7,29.60,North,0,0.0,0.0,66,0.00,,,0.00,WUHU216HW,2013-03-23 05:53:00,
2013-03-23 01:58:00,26.4,16.5,29.59,North,0,0.0,0.0,66,0.00,,,0.00,WUHU216HW,2013-03-23 05:58:00,
2013-03-23 02:03:00,26.4,16.8,29.60,North,0,0.0,0.0,67,0.00,,,0.00,WUHU216HW,2013-03-23 06:03:00,
2013-03-23 02:08:00,26.4,16.8,29.60,North,0,0.0,0.0,67,0.00,,,0.00,WUHU216HW,2013-03-23 06:08:00,
2013-03-23 02:13:00,26.4,16.8,29.59,North,0,0.0,0.0,67,0.00,,,0.00,WUHU216HW,2013-03-23 06:13:00,
2013-03-23 02:18:00,26.4,16.8,29.60,North,0,0.0,0.0,67,0.00,,,0.00,WUHU216HW,2013-03-23 06:18:00,
2013-03-23 02:23:00,26.4,16.8,29.60,North,0,0.0,0.0,67,0.00,,,0.00,WUHU216HW,2013-03-23 06:23:00,
2013-03-23 02:28:00,26.4,16.8,29.59,North,0,0.0,0.0,67,0.00,,,0.00,WUHU216HW,2013-03-23 06:28:00,
2013-03-23 02:34:00,26.4,16.8,29.59,North,0,0.0,0.0,67,0.00,,,0.00,WUHU216HW,2013-03-23 06:34:00,
2013-03-23 02:39:00,26.4,16.8,29.59,North,0,0.0,0.0,67,0.00,,,0.00,WUHU216HW,2013-03-23 06:39:00,
2013-03-23 02:44:00,26.6,17.4,29.59,North,0,0.0,0.0,68,0.00,,,0.00,WUHU216HW,2013-03-23 06:44:00,
2013-03-23 02:49:00,26.6,17.4,29.59,North,0,0.0,0.0,68,0.00,,,0.00,WUHU216HW,2013-03-23 06:49:00,
2013-03-23 02:54:00,26.6,17.0,29.59,North,0,0.0,0.0,67,0.00,,,0.00,WUHU216HW,2013-03-23 06:54:00,
2013-03-23 02:59:00,26.7,17.6,29.59,North,0,0.0,0.0,68,0.00,,,0.00,WUHU216HW,2013-03-23 06:59:00,
2013-03-23 03:04:00,26.7,17.6,29.59,North,0,0.0,0.0,68,0.00,,,0.00,WUHU216HW,2013-03-23 07:04:00,
2013-03-23 03:09:00,26.6,17.4,29.60,North,0,0.0,0.0,68,0.00,,,0.00,WUHU216HW,2013-03-23 07:09:00,
2013-03-23 03:14:00,26.4,17.4,29.60,North,0,0.0,0.0,68,0.00,,,0.00,WUHU216HW,2013-03-23 07:14:00,
2013-03-23 03:19:00,26.4,17.2,29.60,North,0,0.0,0.0,68,0.00,,,0.00,WUHU216HW,2013-03-23 07:19:00,
2013-03-23 03:25:00,26.4,17.6,29.60,North,0,0.0,0.0,69,0.00,,,0.00,WUHU216HW,2013-03-23 07:25:00,
2013-03-23 03:30:00,26.4,17.6,29.59,North,0,0.0,0.0,69,0.00,,,0.00,WUHU216HW,2013-03-23 07:30:00,
2013-03-23 03:35:00,26.2,17.4,29.60,North,0,0.0,0.0,69,0.00,,,0.00,WUHU216HW,2013-03-23 07:35:00,
2013-03-23 03:40:00,26.2,17.4,29.60,North,0,0.0,0.0,69,0.00,,,0.00,WUHU216HW,2013-03-23 07:40:00,
2013-03-23 03:45:00,26.0,17.2,29.60,North,0,0.0,0.0,69,0.00,,,0.00,WUHU216HW,2013-03-23 07:45:00,
2013-03-23 03:50:00,25.8,17.0,29.59,North,0,0.0,0.0,69,0.00,,,0.00,WUHU216HW,2013-03-23 07:50:00,
2013-03-23 03:55:00,25.7,17.2,29.60,North,0,0.0,0.0,70,0.00,,,0.00,WUHU216HW,2013-03-23 07:55:00,
2013-03-23 04:00:00,25.7,17.2,29.60,North,0,0.0,0.0,70,0.00,,,0.00,WUHU216HW,2013-03-23 08:00:00,
2013-03-23 04:05:00,25.5,17.0,29.59,North,0,0.0,0.0,70,0.00,,,0.00,WUHU216HW,2013-03-23 08:05:00,
2013-03-23 04:10:00,25.5,17.3,29.59,North,0,0.0,0.0,71,0.00,,,0.00,WUHU216HW,2013-03-23 08:10:00,
2013-03-23 04:16:00,25.5,17.0,29.60,North,0,0.0,0.0,70,0.00,,,0.00,WUHU216HW,2013-03-23 08:16:00,
2013-03-23 04:21:00,25.3,16.8,29.59,North,0,0.0,0.0,70,0.00,,,0.00,WUHU216HW,2013-03-23 08:21:00,
2013-03-23 04:26:00,25.3,17.1,29.60,North,0,0.0,0.0,71,0.00,,,0.00,WUHU216HW,2013-03-23 08:26:00,
2013-03-23 04:31:00,25.3,17.1,29.60,North,0,0.0,0.0,71,0.00,,,0.00,WUHU216HW,2013-03-23 08:31:00,
2013-03-23 04:36:00,25.3,17.1,29.60,North,0,0.0,0.0,71,0.00,,,0.00,WUHU216HW,2013-03-23 08:36:00,
2013-03-23 04:41:00,25.1,17.0,29.59,North,0,0.0,0.0,71,0.00,,,0.00,WUHU216HW,2013-03-23 08:41:00,
2013-03-23 04:46:00,25.1,17.3,29.59,North,0,0.0,0.0,72,0.00,,,0.00,WUHU216HW,2013-03-23 08:46:00,
2013-03-23 04:52:00,25.1,17.3,29.59,North,0,0.0,0.0,72,0.00,,,0.00,WUHU216HW,2013-03-23 08:52:00,
2013-03-23 04:57:00,25.1,17.3,29.59,North,0,0.0,0.0,72,0.00,,,0.00,WUHU216HW,2013-03-23 08:57:00,
2013-03-23 05:02:00,24.9,17.1,29.59,North,0,0.0,0.0,72,0.00,,,0.00,WUHU216HW,2013-03-23 09:02:00,
2013-03-23 05:07:00,24.9,17.1,29.59,North,0,0.0,0.0,72,0.00,,,0.00,WUHU216HW,2013-03-23 09:07:00,
2013-03-23 05:12:00,24.9,17.1,29.59,North,0,0.0,0.0,72,0.00,,,0.00,WUHU216HW,2013-03-23 09:12:00,
2013-03-23 05:17:00,24.6,16.8,29.59,North,0,0.0,0.0,72,0.00,,,0.00,WUHU216HW,2013-03-23 09:17:00,
2013-03-23 05:22:00,24.6,16.8,29.59,North,0,0.0,0.0,72,0.00,,,0.00,WUHU216HW,2013-03-23 09:22:00,
2013-03-23 05:27:00,24.4,16.6,29.59,North,0,0.0,0.0,72,0.00,,,0.00,WUHU216HW,2013-03-23 09:27:00,
2013-03-23 05:32:00,24.4,16.6,29.59,North,0,0.0,0.0,72,0.00,,,0.00,WUHU216HW,2013-03-23 09:32:00,
2013-03-23 05:37:00,24.4,16.6,29.59,North,0,0.0,0.0,72,0.00,,,0.00,WUHU216HW,2013-03-23 09:37:00,
2013-03-23 05:42:00,24.4,16.9,29.59,North,0,0.0,0.0,73,0.00,,,0.00,WUHU216HW,2013-03-23 09:42:00,
2013-03-23 05:47:00,24.0,16.6,29.59,North,0,0.0,0.0,73,0.00,,,0.00,WUHU216HW,2013-03-23 09:47:00,
2013-03-23 05:52:00,24.0,16.6,29.59,North,0,0.0,0.0,73,0.00,,,0.00,WUHU216HW,2013-03-23 09:52:00,
2013-03-23 05:58:00,23.9,16.4,29.59,North,0,0.0,0.0,73,0.00,,,0.00,WUHU216HW,2013-03-23 09:58:00,
2013-03-23 06:03:00,23.9,16.4,29.59,North,0,0.0,0.0,73,0.00,,,0.00,WUHU216HW,2013-03-23 10:03:00,
2013-03-23 06:08:00,23.9,16.4,29.59,North,0,0.0,0.0,73,0.00,,,0.00,WUHU216HW,2013-03-23 10:08:00,
2013-03-23 06:13:00,23.9,16.6,29.59,North,0,0.0,0.0,74,0.00,,,0.00,WUHU216HW,2013-03-23 10:13:00,
2013-03-23 06:18:00,23.9,16.7,29.59,North,0,0.0,0.0,74,0.00,,,0.00,WUHU216HW,2013-03-23 10:18:00,
2013-03-23 06:23:00,23.9,16.7,29.59,North,0,0.0,0.0,74,0.00,,,0.00,WUHU216HW,2013-03-23 10:23:00,
2013-03-23 06:28:00,23.7,16.6,29.59,North,0,0.0,0.0,74,0.00,,,0.00,WUHU216HW,2013-03-23 10:28:00,
2013-03-23 06:33:00,23.7,16.6,29.60,North,0,0.0,0.0,74,0.00,,,0.00,WUHU216HW,2013-03-23 10:33:00,
2013-03-23 06:38:00,23.7,16.9,29.60,North,0,0.0,0.0,75,0.00,,,0.00,WUHU216HW,2013-03-23 10:38:00,
2013-03-23 06:43:00,23.7,16.9,29.60,North,0,0.0,0.0,75,0.00,,,0.00,WUHU216HW,2013-03-23 10:43:00,
2013-03-23 06:48:00,23.5,16.7,29.60,North,0,0.0,0.0,75,0.00,,,0.00,WUHU216HW,2013-03-23 10:48:00,
2013-03-23 06:53:00,23.5,16.7,29.60,North,0,0.0,0.0,75,0.00,,,0.00,WUHU216HW,2013-03-23 10:53:00,
2013-03-23 06:58:00,23.5,16.4,29.61,North,0,0.0,0.0,74,0.00,,,0.00,WUHU216HW,2013-03-23 10:58:00,
2013-03-23 07:03:00,23.5,16.4,29.61,North,0,0.0,0.0,74,0.00,,,0.00,WUHU216HW,2013-03-23 11:03:00,
2013-03-23 07:08:00,23.5,16.7,29.61,North,0,0.0,0.0,75,0.00,,,0.00,WUHU216HW,2013-03-23 11:08:00,
2013-03-23 07:13:00,23.5,16.7,29.61,North,0,0.0,0.0,75,0.00,,,0.00,WUHU216HW,2013-03-23 11:13:00,
2013-03-23 07:19:00,23.5,16.7,29.61,North,0,0.0,0.0,75,0.00,,,0.00,WUHU216HW,2013-03-23 11:19:00,
2013-03-23 07:24:00,23.5,16.7,29.62,North,0,0.0,0.0,75,0.00,,,0.00,WUHU216HW,2013-03-23 11:24:00,
2013-03-23 07:29:00,23.7,16.9,29.62,North,0,0.0,0.0,75,0.00,,,0.00,WUHU216HW,2013-03-23 11:29:00,
2013-03-23 07:34:00,23.7,16.9,29.62,North,0,0.0,0.0,75,0.00,,,0.00,WUHU216HW,2013-03-23 11:34:00,
2013-03-23 07:39:00,23.9,17.0,29.61,North,0,0.0,0.0,75,0.00,,,0.00,WUHU216HW,2013-03-23 11:39:00,
2013-03-23 07:44:00,23.9,17.0,29.61,North,0,0.0,0.0,75,0.00,,,0.00,WUHU216HW,2013-03-23 11:44:00,
2013-03-23 07:49:00,24.0,17.2,29.61,North,0,0.0,0.0,75,0.00,,,0.00,WUHU216HW,2013-03-23 11:49:00,
2013-03-23 07:54:00,24.4,17.6,29.62,North,0,0.0,0.0,75,0.00,,,0.00,WUHU216HW,2013-03-23 11:54:00,
2013-03-23 07:59:00,24.6,17.7,29.62,North,0,0.0,0.0,75,0.00,,,0.00,WUHU216HW,2013-03-23 11:59:00,
2013-03-23 08:04:00,24.9,18.1,29.62,North,0,0.0,0.0,75,0.00,,,0.00,WUHU216HW,2013-03-23 12:04:00,
2013-03-23 08:09:00,25.3,18.4,29.62,North,0,0.0,0.0,75,0.00,,,0.00,WUHU216HW,2013-03-23 12:09:00,
2013-03-23 08:14:00,25.7,19.1,29.62,North,0,0.0,0.0,76,0.00,,,0.00,WUHU216HW,2013-03-23 12:14:00,
2013-03-23 08:20:00,26.2,19.6,29.62,North,0,0.0,0.0,76,0.00,,,0.00,WUHU216HW,2013-03-23 12:20:00,
2013-03-23 08:25:00,26.9,20.3,29.63,North,0,0.0,0.0,76,0.00,,,0.00,WUHU216HW,2013-03-23 12:25:00,
2013-03-23 08:30:00,27.5,20.5,29.62,North,0,0.0,0.0,75,0.00,,,0.00,WUHU216HW,2013-03-23 12:30:00,
2013-03-23 08:35:00,28.2,21.2,29.62,North,0,0.0,0.0,75,0.00,,,0.00,WUHU216HW,2013-03-23 12:35:00,
2013-03-23 08:40:00,28.5,21.3,29.62,North,0,0.0,0.0,74,0.00,,,0.00,WUHU216HW,2013-03-23 12:40:00,
2013-03-23 08:45:00,29.1,21.2,29.62,North,0,0.0,0.0,72,0.00,,,0.00,WUHU216HW,2013-03-23 12:45:00,
2013-03-23 08:50:00,29.6,21.7,29.62,West,270,0.0,0.0,72,0.00,,,0.00,WUHU216HW,2013-03-23 12:50:00,
2013-03-23 08:55:00,30.0,21.7,29.62,WSW,248,0.0,0.0,71,0.00,,,0.00,WUHU216HW,2013-03-23 12:55:00,
2013-03-23 09:00:00,30.7,22.4,29.62,WSW,248,0.0,0.0,71,0.00,,,0.00,WUHU216HW,2013-03-23 13:00:00,
2013-03-23 09:05:00,31.1,22.1,29.62,WSW,248,0.0,0.0,69,0.00,,,0.00,WUHU216HW,2013-03-23 13:05:00,
2013-03-23 09:10:00,31.8,22.8,29.62,WSW,248,0.0,0.0,69,0.00,,,0.00,WUHU216HW,2013-03-23 13:10:00,
2013-03-23 09:15:00,33.0,23.6,29.62,West,270,0.0,0.0,68,0.00,,,0.00,WUHU216HW,2013-03-23 13:15:00,
2013-03-23 09:21:00,34.3,24.0,29.62,West,270,0.0,0.0,66,0.00,,,0.00,WUHU216HW,2013-03-23 13:21:00,
2013-03-23 09:26:00,35.2,24.6,29.62,West,270,0.0,0.0,65,0.00,,,0.00,WUHU216HW,2013-03-23 13:26:00,
2013-03-23 09:31:00,36.1,25.1,29.62,WNW,293,0.0,0.0,64,0.00,,,0.00,WUHU216HW,2013-03-23 13:31:00,
2013-03-23 09:36:00,37.0,25.5,29.62,West,270,1.5,1.5,63,0.00,,,0.00,WUHU216HW,2013-03-23 13:36:00,
2013-03-23 09:41:00,38.1,26.5,29.62,NW,315,1.3,1.5,63,0.00,,,0.00,WUHU216HW,2013-03-23 13:41:00,
2013-03-23 09:46:00,38.8,26.4,29.62,WNW,293,0.0,1.5,61,0.00,,,0.00,WUHU216HW,2013-03-23 13:46:00,
2013-03-23 09:51:00,39.5,26.7,29.63,West,270,0.0,1.5,60,0.00,,,0.00,WUHU216HW,2013-03-23 13:51:00,
2013-03-23 09:57:00,40.1,26.8,29.63,NW,315,2.4,2.4,59,0.00,,,0.00,WUHU216HW,2013-03-23 13:57:00,
2013-03-23 10:02:00,40.8,26.9,29.63,West,270,0.0,2.4,59,0.00,,,0.00,WUHU216HW,2013-03-23 14:02:00,
2013-03-23 10:07:00,41.5,27.8,29.62,WSW,248,0.0,1.5,58,0.00,,,0.00,WUHU216HW,2013-03-23 14:07:00,
2013-03-23 10:12:00,42.0,27.4,29.63,West,270,0.0,3.8,56,0.00,,,0.00,WUHU216HW,2013-03-23 14:12:00,
2013-03-23 10:17:00,42.6,27.9,29.63,West,270,0.0,3.8,56,0.00,,,0.00,WUHU216HW,2013-03-23 14:17:00,
2013-03-23 10:22:00,42.6,27.0,29.63,WSW,248,4.6,4.6,54,0.00,,,0.00,WUHU216HW,2013-03-23 14:22:00,
2013-03-23 10:27:00,42.6,26.6,29.63,West,270,3.1,4.6,53,0.00,,,0.00,WUHU216HW,2013-03-23 14:27:00,
2013-03-23 10:32:00,42.6,26.2,29.63,West,270,6.4,9.6,52,0.00,,,0.00,WUHU216HW,2013-03-23 14:32:00,
2013-03-23 10:37:00,42.2,25.8,29.64,SW,225,2.9,9.6,52,0.00,,,0.00,WUHU216HW,2013-03-23 14:37:00,
2013-03-23 10:43:00,42.6,25.7,29.64,WNW,293,2.6,10.7,51,0.00,,,0.00,WUHU216HW,2013-03-23 14:43:00,
2013-03-23 10:48:00,43.3,26.8,29.63,WNW,293,6.9,10.7,52,0.00,,,0.00,WUHU216HW,2013-03-23 14:48:00,
2013-03-23 10:53:00,43.8,26.4,29.63,NNW,338,2.9,10.5,50,0.00,,,0.00,WUHU216HW,2013-03-23 14:53:00,
2013-03-23 10:58:00,44.4,26.4,29.63,WSW,248,0.0,10.2,49,0.00,,,0.00,WUHU216HW,2013-03-23 14:58:00,
2013-03-23 11:03:00,45.1,26.3,29.63,NW,315,9.3,10.2,48,0.00,,,0.00,WUHU216HW,2013-03-23 15:03:00,
2013-03-23 11:08:00,45.3,26.1,29.63,WNW,293,1.5,9.3,47,0.00,,,0.00,WUHU216HW,2013-03-23 15:08:00,
2013-03-23 11:13:00,45.6,25.4,29.63,WNW,293,0.0,7.6,45,0.00,,,0.00,WUHU216HW,2013-03-23 15:13:00,
2013-03-23 11:18:00,45.3,24.5,29.63,West,270,5.5,9.8,44,0.00,,,0.00,WUHU216HW,2013-03-23 15:18:00,
2013-03-23 11:23:00,45.1,25.4,29.63,NW,315,8.7,9.8,46,0.00,,,0.00,WUHU216HW,2013-03-23 15:23:00,
2013-03-23 11:28:00,45.6,26.4,29.62,West,270,2.6,8.7,47,0.00,,,0.00,WUHU216HW,2013-03-23 15:28:00,
2013-03-23 11:33:00,46.0,26.2,29.62,WSW,248,4.2,8.5,46,0.00,,,0.00,WUHU216HW,2013-03-23 15:33:00,
2013-03-23 11:38:00,46.2,25.8,29.62,NW,315,4.2,8.5,45,0.00,,,0.00,WUHU216HW,2013-03-23 15:38:00,
2013-03-23 11:43:00,46.5,26.2,29.62,West,270,1.7,6.0,45,0.00,,,0.00,WUHU216HW,2013-03-23 15:43:00,
2013-03-23 11:48:00,46.9,26.0,29.61,NW,315,0.0,7.1,44,0.00,,,0.00,WUHU216HW,2013-03-23 15:48:00,
2013-03-23 11:53:00,46.7,25.1,29.61,WNW,293,5.1,11.4,43,0.00,,,0.00,WUHU216HW,2013-03-23 15:53:00,
2013-03-23 11:58:00,46.5,25.1,29.61,NNW,338,3.1,11.4,43,0.00,,,0.00,WUHU216HW,2013-03-23 15:58:00,
2013-03-23 12:03:00,46.2,25.3,29.61,West,270,4.4,12.7,44,0.00,,,0.00,WUHU216HW,2013-03-23 16:03:00,
2013-03-23 12:09:00,46.7,26.3,29.61,West,270,0.0,12.7,45,0.00,,,0.00,WUHU216HW,2013-03-23 16:09:00,
2013-03-23 12:14:00,47.8,27.3,29.60,WNW,293,0.0,6.2,45,0.00,,,0.00,WUHU216HW,2013-03-23 16:14:00,
2013-03-23 12:19:00,48.3,26.2,29.60,West,270,7.1,8.2,42,0.00,,,0.00,WUHU216HW,2013-03-23 16:19:00,
2013-03-23 12:24:00,48.5,26.3,29.60,NNW,338,7.3,8.5,42,0.00,,,0.00,WUHU216HW,2013-03-23 16:24:00,
2013-03-23 12:29:00,48.5,26.9,29.60,WNW,293,9.3,10.7,43,0.00,,,0.00,WUHU216HW,2013-03-23 16:29:00,
2013-03-23 12:34:00,48.0,24.8,29.60,NW,315,11.4,11.4,40,0.00,,,0.00,WUHU216HW,2013-03-23 16:34:00,
2013-03-23 12:39:00,48.0,25.7,29.60,West,270,10.2,12.0,41,0.00,,,0.00,WUHU216HW,2013-03-23 16:39:00,
2013-03-23 12:44:00,48.0,25.8,29.60,WNW,293,5.3,12.0,42,0.00,,,0.00,WUHU216HW,2013-03-23 16:44:00,
2013-03-23 12:49:00,48.2,26.0,29.60,NW,315,8.7,12.5,42,0.00,,,0.00,WUHU216HW,2013-03-23 16:49:00,
2013-03-23 12:54:00,48.2,26.0,29.59,WNW,293,0.0,12.5,42,0.00,,,0.00,WUHU216HW,2013-03-23 16:54:00,
2013-03-23 12:59:00,48.9,27.6,29.59,NW,315,0.0,7.1,44,0.00,,,0.00,WUHU216HW,2013-03-23 16:59:00,
2013-03-23 13:04:00,49.8,28.0,29.59,West,270,4.4,11.6,43,0.00,,,0.00,WUHU216HW,2013-03-23 17:04:00,
2013-03-23 13:09:00,49.8,26.9,29.59,West,270,4.9,13.8,41,0.00,,,0.00,WUHU216HW,2013-03-23 17:09:00,
2013-03-23 13:14:00,49.8,26.9,29.59,NNW,338,6.2,13.8,41,0.00,,,0.00,WUHU216HW,2013-03-23 17:14:00,
2013-03-23 13:19:00,49.6,26.8,29.59,West,270,7.1,11.4,41,0.00,,,0.00,WUHU216HW,2013-03-23 17:19:00,
2013-03-23 13:24:00,49.6,25.5,29.58,NW,315,9.3,9.3,39,0.00,,,0.00,WUHU216HW,2013-03-23 17:24:00,
2013-03-23 13:29:00,49.8,26.9,29.59,NW,315,7.8,9.3,41,0.00,,,0.00,WUHU216HW,2013-03-23 17:29:00,
2013-03-23 13:34:00,50.7,27.2,29.58,West,270,3.8,8.7,40,0.00,,,0.00,WUHU216HW,2013-03-23 17:34:00,
2013-03-23 13:39:00,51.2,27.7,29.57,WNW,293,0.0,7.8,40,0.00,,,0.00,WUHU216HW,2013-03-23 17:39:00,
2013-03-23 13:44:00,51.6,28.0,29.57,WNW,293,0.0,9.1,40,0.00,,,0.00,WUHU216HW,2013-03-23 17:44:00,
2013-03-23 13:49:00,51.9,28.2,29.57,West,270,6.7,9.1,40,0.00,,,0.00,WUHU216HW,2013-03-23 17:49:00,
2013-03-23 13:54:00,52.3,28.0,29.57,NW,315,0.0,8.9,39,0.00,,,0.00,WUHU216HW,2013-03-23 17:54:00,
2013-03-23 13:59:00,52.8,27.8,29.56,West,270,6.2,13.1,38,0.00,,,0.00,WUHU216HW,2013-03-23 17:59:00,
2013-03-23 14:04:00,52.1,25.1,29.56,NW,315,0.0,13.1,35,0.00,,,0.00,WUHU216HW,2013-03-23 18:04:00,
2013-03-23 14:09:00,51.9,28.2,29.56,WSW,248,0.8,10.0,40,0.00,,,0.00,WUHU216HW,2013-03-23 18:09:00,
2013-03-23 14:15:00,52.8,27.8,29.56,SSE,158,0.0,7.1,38,0.00,,,0.00,WUHU216HW,2013-03-23 18:15:00,
2013-03-23 14:20:00,53.4,29.3,29.56,WSW,248,0.0,4.4,39,0.00,,,0.00,WUHU216HW,2013-03-23 18:20:00,
2013-03-23 14:25:00,54.1,28.9,29.56,WNW,293,2.9,4.9,38,0.00,,,0.00,WUHU216HW,2013-03-23 18:25:00,
2013-03-23 14:30:00,53.7,27.9,29.56,NNW,338,8.7,8.7,37,0.00,,,0.00,WUHU216HW,2013-03-23 18:30:00,
2013-03-23 14:35:00,53.0,27.3,29.55,SW,225,0.0,9.8,37,0.00,,,0.00,WUHU216HW,2013-03-23 18:35:00,
2013-03-23 14:40:00,53.2,28.1,29.55,West,270,1.5,13.1,38,0.00,,,0.00,WUHU216HW,2013-03-23 18:40:00,
2013-03-23 14:45:00,53.2,27.4,29.55,SW,225,0.0,13.1,37,0.00,,,0.00,WUHU216HW,2013-03-23 18:45:00,
2013-03-23 14:50:00,53.4,27.6,29.54,NW,315,0.0,12.0,37,0.00,,,0.00,WUHU216HW,2013-03-23 18:50:00,
2013-03-23 14:55:00,53.7,27.9,29.55,NW,315,5.1,12.0,37,0.00,,,0.00,WUHU216HW,2013-03-23 18:55:00,
2013-03-23 15:00:00,53.4,27.7,29.54,WSW,248,0.0,9.3,37,0.00,,,0.00,WUHU216HW,2013-03-23 19:00:00,
2013-03-23 15:05:00,54.1,28.2,29.54,NW,315,0.8,9.3,37,0.00,,,0.00,WUHU216HW,2013-03-23 19:05:00,
2013-03-23 15:11:00,54.3,28.4,29.54,WSW,248,3.8,7.3,37,0.00,,,0.00,WUHU216HW,2013-03-23 19:11:00,
2013-03-23 15:16:00,54.5,27.8,29.54,WNW,293,4.4,7.8,36,0.00,,,0.00,WUHU216HW,2013-03-23 19:16:00,
2013-03-23 15:21:00,54.8,28.3,29.54,NNW,338,4.2,9.3,36,0.00,,,0.00,WUHU216HW,2013-03-23 19:21:00,
2013-03-23 15:26:00,55.0,28.3,29.53,NW,315,0.0,9.3,36,0.00,,,0.00,WUHU216HW,2013-03-23 19:26:00,
2013-03-23 15:32:00,54.8,28.1,29.54,WNW,293,0.0,7.3,36,0.00,,,0.00,WUHU216HW,2013-03-23 19:32:00,
2013-03-23 15:37:00,54.6,26.6,29.54,West,270,7.8,7.8,34,0.00,,,0.00,WUHU216HW,2013-03-23 19:37:00,
2013-03-23 15:42:00,54.1,25.4,29.54,WNW,293,0.0,12.5,33,0.00,,,0.00,WUHU216HW,2013-03-23 19:42:00,
2013-03-23 15:47:00,53.9,25.8,29.54,West,270,0.0,12.5,34,0.00,,,0.00,WUHU216HW,2013-03-23 19:47:00,
2013-03-23 15:52:00,53.4,26.2,29.53,NW,315,0.0,8.2,35,0.00,,,0.00,WUHU216HW,2013-03-23 19:52:00,
2013-03-23 15:57:00,53.4,26.2,29.53,West,270,0.0,8.2,35,0.00,,,0.00,WUHU216HW,2013-03-23 19:57:00,
2013-03-23 16:02:00,53.4,26.2,29.53,WSW,248,0.0,8.0,35,0.00,,,0.00,WUHU216HW,2013-03-23 20:02:00,
2013-03-23 16:07:00,54.3,27.7,29.52,West,270,6.9,6.9,36,0.00,,,0.00,WUHU216HW,2013-03-23 20:07:00,
2013-03-23 16:12:00,55.0,28.3,29.52,WNW,293,4.0,6.9,36,0.00,,,0.00,WUHU216HW,2013-03-23 20:12:00,
2013-03-23 16:17:00,55.2,25.6,29.52,NW,315,5.1,10.2,32,0.00,,,0.00,WUHU216HW,2013-03-23 20:17:00,
2013-03-23 16:22:00,55.0,26.2,29.52,West,270,0.0,10.2,33,0.00,,,0.00,WUHU216HW,2013-03-23 20:22:00,
2013-03-23 16:27:00,55.0,26.9,29.52,NNW,338,6.0,6.0,34,0.00,,,0.00,WUHU216HW,2013-03-23 20:27:00,
2013-03-23 16:32:00,55.0,25.5,29.53,NW,315,3.3,11.6,32,0.00,,,0.00,WUHU216HW,2013-03-23 20:32:00,
2013-03-23 16:37:00,55.0,26.2,29.53,NNW,338,10.9,14.9,33,0.00,,,0.00,WUHU216HW,2013-03-23 20:37:00,
2013-03-23 16:42:00,54.5,25.1,29.52,NNW,338,3.5,14.9,32,0.00,,,0.00,WUHU216HW,2013-03-23 20:42:00,
2013-03-23 16:47:00,54.6,25.9,29.53,WNW,293,4.2,12.5,33,0.00,,,0.00,WUHU216HW,2013-03-23 20:47:00,
2013-03-23 16:52:00,55.0,26.2,29.53,WNW,293,4.4,10.5,33,0.00,,,0.00,WUHU216HW,2013-03-23 20:52:00,
2013-03-23 16:57:00,54.5,23.7,29.53,WNW,293,7.6,12.7,30,0.00,,,0.00,WUHU216HW,2013-03-23 20:57:00,
2013-03-23 17:02:00,54.1,24.8,29.53,West,270,2.9,12.7,32,0.00,,,0.00,WUHU216HW,2013-03-23 21:02:00,
2013-03-23 17:07:00,54.3,23.5,29.53,NW,315,16.7,16.7,30,0.00,,,0.00,WUHU216HW,2013-03-23 21:07:00,
2013-03-23 17:12:00,53.7,23.8,29.53,NW,315,9.1,16.7,31,0.00,,,0.00,WUHU216HW,2013-03-23 21:12:00,
2013-03-23 17:17:00,53.4,23.5,29.53,NNW,338,0.0,10.5,31,0.00,,,0.00,WUHU216HW,2013-03-23 21:17:00,
2013-03-23 17:23:00,53.6,23.6,29.52,West,270,0.0,10.5,31,0.00,,,0.00,WUHU216HW,2013-03-23 21:23:00,
2013-03-23 17:28:00,53.7,24.5,29.53,NW,315,2.4,10.5,32,0.00,,,0.00,WUHU216HW,2013-03-23 21:28:00,
2013-03-23 17:33:00,53.9,23.9,29.53,WNW,293,4.6,7.3,31,0.00,,,0.00,WUHU216HW,2013-03-23 21:33:00,
2013-03-23 17:38:00,53.7,23.8,29.53,WNW,293,12.3,12.3,31,0.00,,,0.00,WUHU216HW,2013-03-23 21:38:00,
2013-03-23 17:43:00,53.4,23.5,29.53,NNW,338,8.2,12.3,31,0.00,,,0.00,WUHU216HW,2013-03-23 21:43:00,
2013-03-23 17:48:00,53.2,23.3,29.53,NNW,338,2.0,12.0,31,0.00,,,0.00,WUHU216HW,2013-03-23 21:48:00,
2013-03-23 17:53:00,52.8,23.1,29.54,NW,315,8.0,10.0,32,0.00,,,0.00,WUHU216HW,2013-03-23 21:53:00,
2013-03-23 17:58:00,53.2,24.0,29.53,NW,315,6.0,10.0,32,0.00,,,0.00,WUHU216HW,2013-03-23 21:58:00,
2013-03-23 18:03:00,53.4,24.2,29.54,WNW,293,0.0,9.8,32,0.00,,,0.00,WUHU216HW,2013-03-23 22:03:00,
2013-03-23 18:08:00,53.7,23.8,29.54,NW,315,8.5,11.6,31,0.00,,,0.00,WUHU216HW,2013-03-23 22:08:00,
2013-03-23 18:13:00,53.7,23.8,29.54,NW,315,5.1,11.6,31,0.00,,,0.00,WUHU216HW,2013-03-23 22:13:00,
2013-03-23 18:18:00,53.2,23.3,29.54,WNW,293,6.9,12.5,31,0.00,,,0.00,WUHU216HW,2013-03-23 22:18:00,
2013-03-23 18:24:00,53.0,23.8,29.54,WNW,293,4.6,12.5,32,0.00,,,0.00,WUHU216HW,2013-03-23 22:24:00,
2013-03-23 18:29:00,52.8,23.0,29.55,NW,315,3.3,12.3,31,0.00,,,0.00,WUHU216HW,2013-03-23 22:29:00,
2013-03-23 18:34:00,52.3,23.2,29.54,WNW,293,7.8,12.3,32,0.00,,,0.00,WUHU216HW,2013-03-23 22:34:00,
2013-03-23 18:39:00,51.6,22.5,29.54,WNW,293,0.0,9.6,32,0.00,,,0.00,WUHU216HW,2013-03-23 22:39:00,
2013-03-23 18:44:00,51.0,22.6,29.54,NW,315,9.8,9.8,33,0.00,,,0.00,WUHU216HW,2013-03-23 22:44:00,
2013-03-23 18:49:00,50.1,22.6,29.54,NNW,338,0.0,9.8,34,0.00,,,0.00,WUHU216HW,2013-03-23 22:49:00,
2013-03-23 18:54:00,49.6,22.8,29.54,NNW,338,4.4,8.0,35,0.00,,,0.00,WUHU216HW,2013-03-23 22:54:00,
2013-03-23 18:59:00,48.9,22.2,29.54,NNW,338,0.0,8.5,35,0.00,,,0.00,WUHU216HW,2013-03-23 22:59:00,
2013-03-23 19:04:00,48.2,22.3,29.54,NNW,338,0.0,8.5,36,0.00,,,0.00,WUHU216HW,2013-03-23 23:04:00,
2013-03-23 19:09:00,47.6,22.4,29.54,North,0,0.0,6.0,37,0.00,,,0.00,WUHU216HW,2013-03-23 23:09:00,
2013-03-23 19:14:00,47.1,22.0,29.55,NNW,338,0.0,6.0,37,0.00,,,0.00,WUHU216HW,2013-03-23 23:14:00,
2013-03-23 19:19:00,46.9,22.5,29.55,NNW,338,0.0,3.1,38,0.00,,,0.00,WUHU216HW,2013-03-23 23:19:00,
2013-03-23 19:24:00,46.4,22.0,29.55,NNW,338,1.1,3.1,38,0.00,,,0.00,WUHU216HW,2013-03-23 23:24:00,
2013-03-23 19:29:00,46.0,22.3,29.55,North,0,0.0,4.4,39,0.00,,,0.00,WUHU216HW,2013-03-23 23:29:00,
2013-03-23 19:35:00,45.6,22.0,29.55,NNW,338,0.0,5.5,39,0.00,,,0.00,WUHU216HW,2013-03-23 23:35:00,
2013-03-23 19:40:00,45.3,21.7,29.55,NNW,338,0.0,5.5,39,0.00,,,0.00,WUHU216HW,2013-03-23 23:40:00,
2013-03-23 19:45:00,44.9,22.0,29.55,NNW,338,0.0,2.0,40,0.00,,,0.00,WUHU216HW,2013-03-23 23:45:00,
2013-03-23 19:50:00,44.7,21.9,29.54,NNW,338,1.1,6.7,40,0.00,,,0.00,WUHU216HW,2013-03-23 23:50:00,
2013-03-23 19:55:00,44.6,21.7,29.55,NNW,338,0.0,6.7,40,0.00,,,0.00,WUHU216HW,2013-03-23 23:55:00,
2013-03-23 20:00:00,44.4,22.1,29.55,NNW,338,0.0,4.6,41,0.00,,,0.00,WUHU216HW,2013-03-24 00:00:00,
2013-03-23 20:05:00,44.0,21.7,29.56,NNW,338,0.0,0.0,41,0.00,,,0.00,WUHU216HW,2013-03-24 00:05:00,
2013-03-23 20:10:00,43.8,21.6,29.56,NW,315,0.0,0.0,41,0.00,,,0.00,WUHU216HW,2013-03-24 00:10:00,
2013-03-23 20:15:00,43.7,21.4,29.56,NNW,338,0.0,0.0,41,0.00,,,0.00,WUHU216HW,2013-03-24 00:15:00,
2013-03-23 20:20:00,43.5,21.3,29.56,NNW,338,0.0,0.0,41,0.00,,,0.00,WUHU216HW,2013-03-24 00:20:00,
2013-03-23 20:25:00,43.3,21.1,29.57,NNW,338,0.0,0.0,41,0.00,,,0.00,WUHU216HW,2013-03-24 00:25:00,
2013-03-23 20:30:00,42.9,21.3,29.57,North,0,0.0,0.0,42,0.00,,,0.00,WUHU216HW,2013-03-24 00:30:00,
2013-03-23 20:35:00,42.9,21.3,29.57,North,0,0.0,0.0,42,0.00,,,0.00,WUHU216HW,2013-03-24 00:35:00,
2013-03-23 20:40:00,42.6,21.0,29.57,NNE,23,0.0,0.0,42,0.00,,,0.00,WUHU216HW,2013-03-24 00:40:00,
2013-03-23 20:45:00,42.4,21.3,29.58,North,0,0.0,0.0,43,0.00,,,0.00,WUHU216HW,2013-03-24 00:45:00,
2013-03-23 20:50:00,42.0,21.0,29.57,North,0,0.0,0.0,43,0.00,,,0.00,WUHU216HW,2013-03-24 00:50:00,
2013-03-23 20:55:00,41.7,21.2,29.58,NNW,338,0.0,0.0,44,0.00,,,0.00,WUHU216HW,2013-03-24 00:55:00,
2013-03-23 21:00:00,41.5,21.0,29.58,NNW,338,0.4,0.4,44,0.00,,,0.00,WUHU216HW,2013-03-24 01:00:00,
2013-03-23 21:05:00,41.3,21.4,29.58,NNW,338,7.1,7.1,45,0.00,,,0.00,WUHU216HW,2013-03-24 01:05:00,
2013-03-23 21:10:00,41.3,21.9,29.58,NNW,338,2.9,7.1,46,0.00,,,0.00,WUHU216HW,2013-03-24 01:10:00,
2013-03-23 21:16:00,41.3,22.4,29.59,NNW,338,4.6,8.0,47,0.00,,,0.00,WUHU216HW,2013-03-24 01:16:00,
2013-03-23 21:21:00,41.1,22.3,29.59,North,0,3.3,8.0,47,0.00,,,0.00,WUHU216HW,2013-03-24 01:21:00,
2013-03-23 21:26:00,40.8,21.9,29.59,North,0,1.7,6.9,47,0.00,,,0.00,WUHU216HW,2013-03-24 01:26:00,
2013-03-23 21:31:00,40.6,21.8,29.59,North,0,1.3,4.4,47,0.00,,,0.00,WUHU216HW,2013-03-24 01:31:00,
2013-03-23 21:36:00,40.4,22.1,29.60,NNW,338,3.1,5.3,48,0.00,,,0.00,WUHU216HW,2013-03-24 01:36:00,
2013-03-23 21:41:00,40.1,22.3,29.59,NNW,338,3.8,7.6,49,0.00,,,0.00,WUHU216HW,2013-03-24 01:41:00,
2013-03-23 21:46:00,39.9,22.7,29.60,North,0,6.2,6.2,50,0.00,,,0.00,WUHU216HW,2013-03-24 01:46:00,
2013-03-23 21:52:00,39.7,22.5,29.60,NNE,23,4.9,6.2,50,0.00,,,0.00,WUHU216HW,2013-03-24 01:52:00,
2013-03-23 21:57:00,39.5,22.8,29.60,North,0,1.5,6.2,51,0.00,,,0.00,WUHU216HW,2013-03-24 01:57:00,
2013-03-23 22:02:00,39.3,22.6,29.60,NNE,23,1.7,6.2,51,0.00,,,0.00,WUHU216HW,2013-03-24 02:02:00,
2013-03-23 22:07:00,39.2,22.5,29.60,North,0,2.6,2.6,51,0.00,,,0.00,WUHU216HW,2013-03-24 02:07:00,
2013-03-23 22:12:00,39.0,22.8,29.61,NNW,338,3.5,3.5,52,0.00,,,0.00,WUHU216HW,2013-03-24 02:12:00,
2013-03-23 22:17:00,38.8,22.6,29.61,NNE,23,0.0,6.4,52,0.00,,,0.00,WUHU216HW,2013-03-24 02:17:00,
2013-03-23 22:22:00,38.6,22.4,29.61,North,0,0.0,6.4,52,0.00,,,0.00,WUHU216HW,2013-03-24 02:22:00,
2013-03-23 22:27:00,38.4,22.3,29.61,NNE,23,0.0,0.0,52,0.00,,,0.00,WUHU216HW,2013-03-24 02:27:00,
2013-03-23 22:32:00,38.1,22.4,29.61,North,0,0.0,0.0,53,0.00,,,0.00,WUHU216HW,2013-03-24 02:32:00,
2013-03-23 22:37:00,38.1,22.4,29.61,North,0,0.0,4.4,53,0.00,,,0.00,WUHU216HW,2013-03-24 02:37:00,
2013-03-23 22:42:00,38.1,22.4,29.61,NNW,338,2.4,5.1,53,0.00,,,0.00,WUHU216HW,2013-03-24 02:42:00,
2013-03-23 22:47:00,37.9,22.6,29.61,North,0,4.6,8.0,54,0.00,,,0.00,WUHU216HW,2013-03-24 02:47:00,
2013-03-23 22:52:00,37.9,22.6,29.61,NNW,338,4.9,8.0,54,0.00,,,0.00,WUHU216HW,2013-03-24 02:52:00,
2013-03-23 22:57:00,37.5,22.5,29.61,North,0,5.1,7.8,54,0.00,,,0.00,WUHU216HW,2013-03-24 02:57:00,
2013-03-23 23:02:00,37.5,22.8,29.61,North,0,7.6,8.5,55,0.00,,,0.00,WUHU216HW,2013-03-24 03:02:00,
2013-03-23 23:07:00,37.2,22.4,29.61,NW,315,0.8,8.5,55,0.00,,,0.00,WUHU216HW,2013-03-24 03:07:00,
2013-03-23 23:13:00,37.0,22.3,29.61,NNW,338,2.6,5.5,55,0.00,,,0.00,WUHU216HW,2013-03-24 03:13:00,
2013-03-23 23:18:00,36.6,22.4,29.61,NNW,338,0.0,5.3,56,0.00,,,0.00,WUHU216HW,2013-03-24 03:18:00,
2013-03-23 23:23:00,36.6,22.2,29.61,NNE,23,0.0,5.3,56,0.00,,,0.00,WUHU216HW,2013-03-24 03:23:00,
2013-03-23 23:28:00,36.3,22.1,29.61,North,0,0.0,2.4,56,0.00,,,0.00,WUHU216HW,2013-03-24 03:28:00,
2013-03-23 23:33:00,36.1,21.9,29.61,North,0,0.0,0.0,56,0.00,,,0.00,WUHU216HW,2013-03-24 03:33:00,
2013-03-23 23:38:00,35.9,21.7,29.61,NNW,338,1.1,1.1,56,0.00,,,0.00,WUHU216HW,2013-03-24 03:38:00,
2013-03-23 23:43:00,35.7,21.6,29.61,NW,315,0.0,1.1,56,0.00,,,0.00,WUHU216HW,2013-03-24 03:43:00,
2013-03-23 23:48:00,35.4,21.2,29.61,NW,315,0.0,0.0,56,0.00,,,0.00,WUHU216HW,2013-03-24 03:48:00,
2013-03-23 23:53:00,35.2,21.0,29.61,NNW,338,0.0,0.0,56,0.00,,,0.00,WUHU216HW,2013-03-24 03:53:00,
2013-03-23 23:58:00,34.8,21.1,29.60,NNW,338,0.0,0.0,57,0.00,,,0.00,WUHU216HW,2013-03-24 03:58:00,